[[{"header":{"parameterUnit":"m.s-1","parameterCategory":1,"la1":30.2991,"la2":30.254,"lo1":-89.0895,"lo2":-89.0444,"dy":0.0017,"dx":0.0017,"nx":28,"ny":28,"refTime":"2025-02-23T03:00:00:Z","depth":0,"parameterNumber":2,"parameterNumberName":"U-component_of_WINDS"},"data":[0,0,0,0,0,0,0,0,0,0,0,0,0,0,0,0,0,0,0,0,0,0,0,0,0,0,0,0,0,0,0,0,0,0,0,0,0,0,0,0,0,0,0,0,0,0,0,0,0,0,0,0,0,0,0,0,0,0,-2.7408,-2.7407,0,-2.7255,-2.7253,-2.7251,-2.7072,-2.7069,-2.7066,-2.7064,-2.6905,-2.6904,-2.6902,0,0,0,0,0,0,0,0,0,0,0,0,0,-2.7548,-2.7546,-2.7409,-2.7407,-2.7405,-2.7255,-2.7253,-2.7251,-2.7072,-2.7069,-2.7066,-2.7063,-2.6906,-2.6904,-2.6902,0,0,0,0,0,0,0,0,0,0,0,0,0,-2.745,-2.7546,-2.7409,-2.7298,-2.7286,-2.7255,-2.7253,-2.725,-2.7073,-2.7069,-2.7065,-2.7061,-2.6906,-2.6904,-2.6902,-2.6967,0,0,-2.6894,-2.6893,0,0,0,0,0,0,0,0,-2.7456,-2.7445,-2.7316,-2.7305,-2.7292,-2.7178,-2.7243,-2.7155,-2.7074,-2.7154,-2.7064,-2.7059,-2.6999,-2.6989,-2.6969,-2.696,-2.6953,-2.6894,-2.6892,-2.6891,-2.689,0,0,0,0,0,0,0,-2.7463,-2.7451,-2.7348,-2.7314,-2.73,-2.7256,-2.7237,-2.7226,-2.7101,-2.7147,-2.7133,-2.7118,-2.6992,-2.6972,-2.6964,-2.6951,-2.6894,-2.6891,-2.689,-2.6889,-2.6989,-2.6993,0,0,0,0,0,0,-2.7487,-2.7458,-2.7352,-2.7343,-2.7366,-2.7256,-2.7236,-2.7219,-2.7101,-2.7079,-2.7121,-2.711,-2.6978,-2.6967,-2.6958,-2.7027,-2.6891,-2.6889,-2.6887,-2.6985,-2.699,-2.6994,0,0,0,0,0,0,-2.749,-2.7479,-2.7359,-2.7397,-2.7378,-2.7258,-2.7241,-2.7218,-2.7198,-2.7082,-2.7059,-2.7124,-2.6975,-2.6961,-2.6966,-2.7019,-2.6887,-2.6885,-2.698,-2.6986,-2.6992,-2.7167,0,0,0,0,0,0,-2.7495,-2.7481,-2.7505,-2.7399,-2.7377,-2.7371,-2.7244,-2.7218,-2.7194,-2.7177,-2.7078,-2.7057,-2.697,-2.6971,-2.6964,-2.7013,-2.6883,-2.6974,-2.6983,-2.699,-2.7156,-2.7179,-2.7198,0,0,0,0,0,-2.7501,-2.756,-2.7507,-2.7495,-2.7404,-2.7374,-2.7361,-2.7261,-2.7199,-2.7222,-2.7148,-2.706,-2.7015,-2.6973,-2.6964,-2.7013,-2.6971,-2.698,-2.6989,-2.7147,-2.7174,-2.7197,0,0,0,0,0,0,-2.7675,-2.7544,-2.7484,-2.751,-2.7455,-2.7344,-2.7369,-2.7293,-2.7253,-2.7239,-2.7115,-2.7095,-2.7115,-2.7064,-2.702,-2.7071,-2.698,-2.6988,-2.7103,-2.7128,-2.7149,-2.716,-2.6881,0,0,0,0,0,-2.7716,-2.7703,-2.7589,-2.7624,-2.7599,-2.749,-2.7473,-2.7401,-2.7338,-2.7313,-2.7239,-2.7181,-2.7154,-2.7138,-2.7106,-2.7148,-2.7124,-2.7178,-2.7199,-2.7216,-2.7224,-2.7244,-2.7266,-2.7025,-2.7025,-2.7025,0,0,-2.7802,-2.7729,-2.7728,-2.7657,-2.7606,-2.7595,-2.7471,-2.7465,-2.7456,-2.7312,-2.7312,-2.7257,-2.7184,-2.7209,-2.7215,-2.7167,-2.7286,-2.7228,-2.7243,-2.7241,-2.7256,-2.7279,-2.7299,-2.7031,-2.703,-2.7029,0,0,-2.7952,-2.7896,-2.7918,-2.787,-2.7794,-2.7721,-2.7727,-2.7628,-2.7585,-2.7584,-2.7477,-2.7464,-2.7419,-2.7372,-2.7343,-2.7478,-2.7397,-2.7471,-2.758,-2.76,-2.7619,-2.7636,-2.7684,-2.7703,-2.748,-2.748,-2.7481,0,-2.8068,-2.8048,-2.794,-2.7941,-2.7913,-2.7784,-2.7806,-2.7764,-2.7682,-2.7666,-2.7613,-2.7555,-2.7497,-2.7509,-2.7542,-2.7522,-2.7525,-2.7481,-2.7625,-2.7641,-2.7654,-2.7699,-2.7718,-2.749,-2.7489,-2.7488,-2.7487,0,-2.8194,-2.8182,-2.821,-2.8134,-2.811,-2.8122,-2.8016,-2.8005,-2.7935,-2.7868,-2.7869,-2.7795,-2.7747,-2.7745,-2.7676,-2.7747,-2.772,-2.7648,-2.7554,-2.7689,-2.7729,-2.7745,-2.7504,-2.75,-2.7497,-2.7495,0,0,-2.8448,-2.8314,-2.8326,-2.8291,-2.8199,-2.8187,-2.8194,-2.8147,-2.814,-2.8088,-2.809,-2.8057,-2.799,-2.7957,-2.7882,-2.79,-2.8013,-2.7826,-2.7822,-2.7863,-2.8088,-2.8142,-2.8164,-2.7959,-2.7962,-2.7964,-2.8094,0,-2.8581,-2.8585,-2.8489,-2.8519,-2.8507,-2.8385,-2.8391,-2.8335,-2.8274,-2.8254,-2.8185,-2.8164,-2.8078,-2.8057,-2.8069,-2.7997,-2.8056,-2.7986,-2.796,-2.796,-2.7982,-2.8184,-2.8241,-2.8367,-2.8109,-2.8111,-2.8113,0,-2.8737,-2.8695,-2.8725,-2.8632,-2.8623,-2.8631,-2.8581,-2.8564,-2.8499,-2.8452,-2.8417,-2.8332,-2.8332,-2.8245,-2.8243,-2.8198,-2.8182,-2.8145,-2.8147,-2.814,-2.8045,-2.8183,-2.8405,-2.8424,-2.8137,-2.8135,-2.8133,0,-2.8919,-2.8871,-2.8882,-2.8856,-2.8748,-2.8756,-2.8712,-2.8642,-2.8621,-2.8578,-2.8563,-2.8521,-2.8497,-2.8467,-2.8373,-2.8318,-2.8383,-2.8287,-2.8344,-2.8347,-2.8363,-2.8363,-2.8585,-2.8354,-2.8354,-2.8353,-2.8353,0,-2.9078,-2.9101,-2.8963,-2.897,-2.8992,-2.8883,-2.8908,-2.8851,-2.8791,-2.8785,-2.8677,-2.8674,-2.8551,-2.8534,-2.8461,-2.8471,-2.8461,-2.8424,-2.8404,-2.8433,-2.8438,-2.842,-2.8409,-2.8358,-2.8357,-2.8356,-2.8355,0,-2.9285,-2.9193,-2.9198,-2.9097,-2.9072,-2.9093,-2.9006,-2.9008,-2.8941,-2.8935,-2.8927,-2.8821,-2.8796,-2.87,-2.8651,-2.8601,-2.8636,-2.8597,-2.8658,-2.8645,-2.8708,-2.8704,-2.8926,-2.895,-2.8705,-2.8707,-2.871,0,-2.9392,-2.9407,-2.9308,-2.9297,-2.9257,-2.924,-2.9218,-2.9112,-2.9093,-2.9022,-2.9033,-2.8999,-2.8966,-2.8932,-2.885,-2.8813,-2.8772,-2.8853,-2.8766,-2.8795,-2.8773,-2.8774,-2.8775,-2.8872,-2.8875,-2.8878,-2.888,0,-2.9592,-2.9546,-2.9519,-2.9477,-2.9454,-2.9416,-2.9371,-2.9368,-2.9249,-2.9234,-2.9207,-2.9182,-2.9133,-2.9101,-2.9051,-2.9004,-2.8923,-2.8908,-2.8919,-2.8949,-2.8984,-2.8966,-2.8709,-2.8903,-2.8901,-2.8899,-2.8898,-2.8897,-2.9751,-2.9759,-2.9691,-2.9665,-2.962,-2.9582,-2.9579,-2.9512,-2.9488,-2.944,-2.9379,-2.9361,-2.9296,-2.922,-2.918,-2.9164,-2.9119,-2.9135,-2.9139,-2.9145,-2.9159,-2.8988,-2.9154,-2.9154,-2.9153,-2.9152,-2.9152,0,-2.9945,-2.9896,-2.9873,-2.9814,-2.9794,-2.972,-2.9667,-2.9655,-2.9641,-2.9587,-2.9558,-2.9528,-2.9497,-2.9415,-2.9375,-2.9379,-2.934,-2.9372,-2.937,-2.9361,-2.9202,-2.9196,-2.9404,-2.9404,-2.9404,-2.9404,-2.9403,-2.9403,-3.0043,-3.0053,-3.0,-2.9988,-2.9937,-2.9919,-2.9895,-2.9859,-2.9816,-2.9788,-2.9762,-2.9709,-2.9644,-2.96,-2.9568,-2.9544,-2.9535,-2.9579,-2.9544,-2.9396,-2.9372,-2.9349,-2.9343,-2.9578,-2.9578,-2.9703,-2.9705,-2.9706]},{"header":{"parameterUnit":"m.s-1","parameterCategory":1,"la1":30.2991,"la2":30.254,"lo1":-89.0895,"lo2":-89.0444,"dy":0.0017,"dx":0.0017,"nx":28,"ny":28,"refTime":"2025-02-23T03:00:00:Z","depth":0,"parameterNumber":3,"parameterNumberName":"V-component_of_WINDS"},"data":[0,0,0,0,0,0,0,0,0,0,0,0,0,0,0,0,0,0,0,0,0,0,0,0,0,0,0,0,0,0,0,0,0,0,0,0,0,0,0,0,0,0,0,0,0,0,0,0,0,0,0,0,0,0,0,0,0,0,-2.6998,-2.6998,0,-2.6995,-2.6995,-2.6995,-2.6933,-2.6931,-2.693,-2.6928,-2.6924,-2.6926,-2.6927,0,0,0,0,0,0,0,0,0,0,0,0,0,-2.6951,-2.6952,-2.6998,-2.6998,-2.6998,-2.6995,-2.6995,-2.6995,-2.6933,-2.6931,-2.6929,-2.6928,-2.6924,-2.6925,-2.6927,0,0,0,0,0,0,0,0,0,0,0,0,0,-2.6962,-2.6953,-2.6998,-2.6967,-2.6964,-2.6995,-2.6995,-2.6995,-2.6934,-2.6931,-2.6929,-2.6927,-2.6923,-2.6925,-2.6927,-2.6987,0,0,-2.6934,-2.6934,0,0,0,0,0,0,0,0,-2.6961,-2.6964,-2.6972,-2.6969,-2.6966,-2.6962,-2.6976,-2.6992,-2.6934,-2.6945,-2.6928,-2.6925,-2.6939,-2.6939,-2.6944,-2.6987,-2.6987,-2.6934,-2.6935,-2.6936,-2.6936,0,0,0,0,0,0,0,-2.6961,-2.6964,-2.6997,-2.6972,-2.6969,-2.6953,-2.6952,-2.6979,-2.6955,-2.6944,-2.694,-2.694,-2.6937,-2.6942,-2.6943,-2.6987,-2.6934,-2.6935,-2.6937,-2.6937,-2.7078,-2.708,0,0,0,0,0,0,-2.6964,-2.6963,-2.6997,-2.6997,-2.6958,-2.6956,-2.6955,-2.6966,-2.6955,-2.6951,-2.6942,-2.6937,-2.694,-2.6941,-2.6943,-2.7012,-2.6936,-2.6938,-2.6939,-2.7075,-2.7078,-2.7081,0,0,0,0,0,0,-2.6964,-2.6968,-2.6997,-2.6979,-2.6981,-2.6959,-2.6972,-2.6967,-2.6972,-2.6953,-2.6949,-2.6952,-2.6938,-2.694,-2.6976,-2.7011,-2.6939,-2.694,-2.7072,-2.7076,-2.7079,-2.7151,0,0,0,0,0,0,-2.6963,-2.6968,-2.6991,-2.698,-2.6983,-2.7032,-2.6974,-2.6968,-2.6976,-2.6969,-2.6961,-2.6958,-2.6936,-2.6974,-2.6978,-2.7013,-2.6942,-2.7069,-2.7074,-2.7078,-2.7146,-2.7157,-2.7167,0,0,0,0,0,-2.6961,-2.7012,-2.6993,-2.6997,-2.7011,-2.7034,-2.7035,-2.7009,-2.6979,-2.7001,-2.6989,-2.6958,-2.7006,-2.6978,-2.6983,-2.7018,-2.7067,-2.7072,-2.7078,-2.7141,-2.7155,-2.7166,0,0,0,0,0,0,-2.7028,-2.701,-2.6988,-2.7037,-2.7037,-2.7023,-2.7051,-2.7025,-2.7034,-2.7028,-2.6995,-2.6994,-2.7035,-2.703,-2.6999,-2.7075,-2.7031,-2.7038,-2.7077,-2.709,-2.71,-2.7102,-2.6944,0,0,0,0,0,-2.7049,-2.7069,-2.7051,-2.7096,-2.7097,-2.7074,-2.7083,-2.7063,-2.7062,-2.7062,-2.7052,-2.7052,-2.7067,-2.7078,-2.7091,-2.7144,-2.7141,-2.717,-2.7181,-2.7189,-2.7196,-2.7224,-2.7237,-2.7099,-2.7099,-2.7099,0,0,-2.7091,-2.7083,-2.7098,-2.7109,-2.7107,-2.7128,-2.7075,-2.71,-2.7115,-2.7066,-2.71,-2.7092,-2.709,-2.7135,-2.7154,-2.7132,-2.7233,-2.7197,-2.7204,-2.7206,-2.7231,-2.7244,-2.7256,-2.7103,-2.7102,-2.7102,0,0,-2.718,-2.7176,-2.7213,-2.7211,-2.7208,-2.7192,-2.7201,-2.7191,-2.7184,-2.7217,-2.718,-2.7197,-2.7224,-2.7224,-2.7228,-2.7314,-2.7286,-2.7319,-2.7374,-2.7402,-2.7412,-2.7422,-2.7453,-2.7465,-2.7325,-2.7326,-2.7326,0,-2.7234,-2.7265,-2.7235,-2.7262,-2.7268,-2.7223,-2.7259,-2.7259,-2.7261,-2.7265,-2.724,-2.7272,-2.7267,-2.7311,-2.7332,-2.7336,-2.7345,-2.7321,-2.7413,-2.7422,-2.7431,-2.746,-2.7472,-2.733,-2.7329,-2.7329,-2.7328,0,-2.733,-2.7352,-2.7382,-2.7384,-2.7393,-2.7425,-2.7399,-2.7411,-2.739,-2.7376,-2.741,-2.7403,-2.7413,-2.7422,-2.7401,-2.7463,-2.7449,-2.7419,-2.7374,-2.7449,-2.7476,-2.7487,-2.7336,-2.7334,-2.7333,-2.7332,0,0,-2.7464,-2.7448,-2.7459,-2.746,-2.7452,-2.7468,-2.7497,-2.7507,-2.7518,-2.752,-2.7544,-2.7566,-2.7538,-2.7542,-2.7521,-2.7544,-2.7614,-2.7511,-2.751,-2.7531,-2.7682,-2.7706,-2.772,-2.7594,-2.7596,-2.7598,-2.7682,0,-2.755,-2.76,-2.7573,-2.7626,-2.7645,-2.7601,-2.7627,-2.7625,-2.7612,-2.7627,-2.7613,-2.763,-2.7591,-2.7593,-2.7614,-2.7601,-2.7644,-2.7594,-2.7616,-2.7618,-2.762,-2.7734,-2.7759,-2.784,-2.7693,-2.7694,-2.7696,0,-2.7658,-2.7664,-2.7719,-2.7707,-2.7714,-2.7738,-2.7744,-2.7758,-2.7754,-2.7744,-2.7747,-2.772,-2.7747,-2.7701,-2.7739,-2.7705,-2.7712,-2.7707,-2.771,-2.7712,-2.7663,-2.7741,-2.7865,-2.7877,-2.7712,-2.7711,-2.771,0,-2.7751,-2.7773,-2.7808,-2.781,-2.7796,-2.7814,-2.7809,-2.7802,-2.781,-2.7815,-2.7819,-2.7827,-2.7832,-2.7839,-2.7815,-2.7784,-2.7855,-2.7808,-2.7848,-2.7848,-2.7866,-2.7866,-2.7995,-2.7868,-2.7868,-2.7868,-2.7868,0,-2.7852,-2.7887,-2.785,-2.7872,-2.791,-2.7878,-2.7916,-2.7907,-2.7901,-2.792,-2.7882,-2.7901,-2.7867,-2.7882,-2.7862,-2.7896,-2.7899,-2.7891,-2.7886,-2.7896,-2.7897,-2.7901,-2.7896,-2.7871,-2.787,-2.787,-2.7869,0,-2.7963,-2.7939,-2.7975,-2.7959,-2.7955,-2.7984,-2.797,-2.799,-2.7974,-2.7999,-2.8002,-2.7978,-2.7994,-2.7969,-2.7982,-2.7969,-2.8016,-2.8002,-2.8018,-2.8014,-2.8056,-2.8053,-2.8194,-2.8211,-2.8072,-2.8074,-2.8075,0,-2.803,-2.8056,-2.8042,-2.8051,-2.8049,-2.8065,-2.8072,-2.804,-2.8049,-2.8046,-2.8066,-2.8078,-2.8087,-2.8114,-2.8098,-2.8107,-2.8093,-2.8142,-2.8095,-2.8104,-2.8096,-2.8095,-2.8098,-2.8152,-2.8154,-2.8155,-2.8156,0,-2.815,-2.8137,-2.8148,-2.8155,-2.8164,-2.8168,-2.817,-2.818,-2.8146,-2.8158,-2.8173,-2.818,-2.8192,-2.8206,-2.8211,-2.8205,-2.8176,-2.8171,-2.8181,-2.8192,-2.8201,-2.8198,-2.8046,-2.8169,-2.8167,-2.8166,-2.8166,-2.8165,-2.8242,-2.8263,-2.8256,-2.827,-2.8267,-2.8269,-2.8286,-2.8272,-2.8284,-2.8292,-2.8272,-2.8292,-2.8287,-2.829,-2.8288,-2.8304,-2.8282,-2.8297,-2.83,-2.8305,-2.8312,-2.8197,-2.8304,-2.8304,-2.8303,-2.8303,-2.8303,0,-2.8361,-2.8354,-2.8367,-2.837,-2.838,-2.835,-2.8349,-2.836,-2.8378,-2.8375,-2.8384,-2.8402,-2.8414,-2.8397,-2.8406,-2.8422,-2.8409,-2.8426,-2.8425,-2.8424,-2.833,-2.8321,-2.8436,-2.8436,-2.8436,-2.8436,-2.8436,-2.8436,-2.8425,-2.8459,-2.8445,-2.8477,-2.8469,-2.8488,-2.8491,-2.8492,-2.8489,-2.851,-2.852,-2.8509,-2.85,-2.8508,-2.8518,-2.8513,-2.8519,-2.8541,-2.8531,-2.8444,-2.8431,-2.8419,-2.841,-2.8542,-2.8542,-2.8624,-2.8625,-2.8626]}]]